Regional Weather Roundup
Issued by NWS

Home | Current Version | Previous Version | Graphics & Text | Print | Product List | Glossary On
Versions: 1 2 3 4 5 6 7 8 9 10 11 12 13 14 15 16 17 18 19 20 21 22 23 24 25 26 27 28 29 30 31 32 33 34 35 36 37 38 39 40 41 42 43 44 45 46 47 48 49 50
000
ASUS43 KDMX 030504
RWRIA

WEATHER ROUNDUP FOR IOWA
NATIONAL WEATHER SERVICE DES MOINES IA
  ISSUED BY NWS QUAD CITIES IA IL
1100 PM CST MON MAR 02 2015

NOTE: "FAIR" INDICATES FEW OR NO CLOUDS BELOW 12,000 FEET WITH NO
SIGNIFICANT WEATHER AND/OR OBSTRUCTIONS TO VISIBILITY.

* - THESE STATIONS ARE NOT NWS STATIONS...THUS NOT UNDER NWS
QUALITY CONTROL.  THEY ALSO DO NOT REPORT WEATHER SUCH
AS PRECIPITATION OR FOG.

IAZ001>003-012>014-020>022-031>034-043>046-030600-
   NORTHWEST IOWA

CITY           SKY/WX    TMP DP  RH WIND       PRES   REMARKS
CARROLL *      CLOUDY    27  21  80 SE14      29.99F WCI  15
CHEROKEE *     FAIR      27  22  80 SE12      29.96F WCI  16
DENNISON *     FAIR      28  21  74 SE10G20   29.94F WCI  19
LE MARS *      FAIR      30  21  69 SE15G23   29.92F WCI  19
ORANGE CITY *  FAIR      28  21  74 CALM      29.92F
SHELDON *      CLOUDY    27  21  80 SE16      29.93F WCI  14
SIOUX CITY     FAIR      32  20  61 SE12      29.92F WCI  23
SPENCER        CLOUDY    27  19  72 SE16      29.97F WCI  15
STORM LAKE *   CLOUDY    25  21  86 SE15      29.96F WCI  12
$$

IAZ055>058-069>071-079>083-090>094-030600-
   SOUTHWEST IOWA

CITY           SKY/WX    TMP DP  RH WIND       PRES   REMARKS
ATLANTIC *     CLOUDY    30  21  69 SE8G15    29.98F WCI  23
AUDUBON *      MOCLDY    28  21  74 SE8       29.98F WCI  20
CLARINDA *     CLOUDY    32  19  59 SE10G18   30.02F WCI  24
COUNCIL BLFS * CLOUDY    30  21  69 S16G23    29.94F WCI  19
CRESTON *      CLOUDY    30  19  64 SE15G22   30.00F WCI  19
HARLAN *       CLOUDY    30  23  74 SE15      30.00F WCI  19
LAMONI         CLOUDY    30  20  66 SE10      30.02F WCI  21
RED OAK *      CLOUDY    32  21  64 SE16      29.99F WCI  21
SHENANDOAH *   CLOUDY    32  21  64 SE12G21   29.99F WCI  23
$$

IAZ047>049-059>061-072>074-084-030600-
   CENTRAL IOWA

CITY           SKY/WX    TMP DP  RH WIND       PRES   REMARKS
AMES           FAIR      26  18  71 SE13      30.06F WCI  15
ANKENY *       FAIR      28  19  69 SE12G17   30.06F WCI  18
BOONE *        FAIR      27  21  80 SE17G24   30.02F WCI  14
CHARITON *     CLOUDY    30  21  69 SE15      30.05F WCI  19
DES MOINES     CLOUDY    29  18  63 SE13      30.06F WCI  19
GRINNELL *     MOCLDY    26  19  77 SE10      30.09F WCI  15
KNOXVILLE *    CLOUDY    28  18  64 SE12      30.06F WCI  18
MARSHALLTOWN   FAIR      25  17  72 SE16      30.07F WCI  12
NEWTON *       CLOUDY    27  19  74 SE14      30.08F WCI  15
PELLA *        MOCLDY    27  23  82 SE8       30.10F WCI  19
PERRY *          N/A     28  22  78 SE14      30.02F WCI  17
$$

IAZ004>006-015-016-023>025-035-036-030600-
   NORTH CENTRAL IOWA

CITY           SKY/WX    TMP DP  RH WIND       PRES   REMARKS
ALGONA *       CLOUDY    25  19  80 SE17      30.01F WCI  11
CLARION *      CLOUDY    25  21  86 SE18      30.03F WCI  11
ESTHERVILLE    CLOUDY    23  19  85 SE17      29.98F WCI   9
FORT DODGE *   CLOUDY    27  18  69 SE10G16   30.03F WCI  17
MASON CITY     CLOUDY    22  15  75 SE15      30.07F WCI   9
FOREST CITY *  CLOUDY    23  16  74 SE14      30.04F WCI  11
WEBSTER CITY * MOCLDY    25  21  86 SE17      30.02F WCI  11
IOWA FALLS *   CLOUDY    24  19  78 SE13      30.07F WCI  13
$$

IAZ007>011-017>019-026>030-037>042-050>054-066-030600-
   NORTHEAST IOWA

CITY           SKY/WX    TMP DP  RH WIND       PRES   REMARKS
CEDAR RAPIDS   FAIR      25  18  74 SE10      30.14F WCI  15
CHARLES CITY * CLOUDY    23  18  80 SE14      30.09F WCI  11
CLINTON *      CLOUDY    27  19  74 SE12      30.23F WCI  16
DECORAH *      CLOUDY    23  14  68 SE7G14    30.11F WCI  15
DUBUQUE        CLOUDY    23  17  78 SE12      30.15F WCI  12
MONTICELLO *   CLOUDY    25  19  80 SE10      30.16F WCI  15
OELWEIN *      CLOUDY    23  18  80 SE15      30.11F WCI  10
WATERLOO       CLOUDY    24  17  74 SE9       30.11F WCI  14
$$

IAZ064-065-067-068-078-030600-
   EAST CENTRAL IOWA

CITY           SKY/WX    TMP DP  RH WIND       PRES   REMARKS
DAVENPORT      CLOUDY    26  17  68 SE13      30.20F WCI  15
IOWA CITY      FAIR      26  19  74 SE8       30.18F WCI  18
MT. PLEASANT * MOCLDY    28  19  70 SE12      30.17F WCI  17
MUSCATINE *    FAIR      28  21  74 SE8       30.20F WCI  20
QUAD CITIES    FAIR      27  18  69 SE9       30.21F WCI  18
$$

IAZ062-063-075>077-085>089-095>099-030600-
   SOUTHEAST IOWA

CITY           SKY/WX    TMP DP  RH WIND       PRES   REMARKS
BURLINGTON     MOCLDY    28  20  71 SE10      30.18F WCI  19
FAIRFIELD *    CLOUDY    28  19  69 SE14G21   30.14F WCI  17
FORT MADISON * MOCLDY    28  19  69 SE8G16    30.19S WCI  20
KEOKUK *       MIX PCPN  30  21  69 SE8G15    30.17F WCI  23
OSKALOOSA *    CLOUDY    27  20  76 SE14      30.11F WCI  16
CENTERVILLE *  MOCLDY    30  21  69 SE12G17   30.09F WCI  21
OTTUMWA        CLOUDY    28  19  69 SE13      30.11F WCI  17
WASHINGTON *   MOCLDY    28  25  86 SE14      30.16F WCI  17
$$

ABBREVIATIONS USED IN REMARKS
   TC - TEMPERATURES IN CELSIUS
  WCI - WIND CHILL INDEX
   HX - HEAT INDEX
  VSB - VISIBILITY
$$



USA.gov is the U.S. government's official web portal to all federal, state and local government web resources and services.